TSC435 LFML-CYUL

Flight info

Callsign TSC435
Flight time N/A
Altitude 32000
Route FJR DCT FISTO DCT MIRBA DCT TEPRA DCT GAPLI DCT LIMRI/M078F340 NATF JOOPY/N0446F360 DCT SATIP Q907 MIILS DCT KEBIG ROCKT3
Aircraft A21N/M-SDE3FGHIRWY/LB1

Departure

Time 2026-04-29 11:29
Airport Marseille Provence Airport (LFML)

Arrival

Time N/A
Airport Montreal / Pierre Elliott Trudeau International Airport (CYUL)
Time Latitude Longitude Altitude Speed Heading
2026-04-29 11:29 43.46705 5.11668 2375 ft 222 kts 209°
2026-04-29 11:29 43.45266 5.10945 2778 ft 222 kts 188°
2026-04-29 11:29 43.43774 5.10499 3406 ft 220 kts 189°
2026-04-29 11:30 43.42285 5.10010 3954 ft 221 kts 190°
2026-04-29 11:30 43.40818 5.09499 4454 ft 223 kts 191°
2026-04-29 11:30 43.39343 5.08938 4954 ft 226 kts 199°
2026-04-29 11:30 43.38031 5.07834 5406 ft 232 kts 222°
2026-04-29 11:31 43.36924 5.06151 5696 ft 247 kts 228°
2026-04-29 11:31 43.35816 5.04276 5975 ft 261 kts 229°
2026-04-29 11:31 43.34671 5.02338 6276 ft 274 kts 229°
2026-04-29 11:31 43.33442 5.00290 6786 ft 278 kts 229°
2026-04-29 11:32 43.32211 4.98264 7401 ft 279 kts 229°
2026-04-29 11:32 43.30970 4.96238 8008 ft 279 kts 229°
2026-04-29 11:32 43.29736 4.94230 8607 ft 280 kts 229°
2026-04-29 11:32 43.28490 4.92190 9175 ft 281 kts 231°
2026-04-29 11:33 43.27592 4.89838 9671 ft 285 kts 254°
2026-04-29 11:33 43.27432 4.87184 10183 ft 288 kts 272°
2026-04-29 11:33 43.27602 4.84393 10504 ft 298 kts 274°
2026-04-29 11:33 43.27791 4.81545 10747 ft 310 kts 274°
2026-04-29 11:34 43.27973 4.78572 10947 ft 322 kts 273°
2026-04-29 11:34 43.28180 4.75462 11176 ft 334 kts 277°
2026-04-29 11:34 43.28721 4.72387 11525 ft 342 kts 288°
2026-04-29 11:34 43.29677 4.69414 12034 ft 344 kts 296°
2026-04-29 11:35 43.30792 4.66600 12498 ft 346 kts 297°
2026-04-29 11:35 43.31960 4.63736 12975 ft 347 kts 298°
2026-04-29 11:35 43.33123 4.60871 13468 ft 349 kts 297°
2026-04-29 11:35 43.34290 4.57969 13920 ft 351 kts 297°
2026-04-29 11:36 43.35444 4.55079 14331 ft 353 kts 297°
2026-04-29 11:36 43.36597 4.52183 14748 ft 355 kts 297°
2026-04-29 11:36 43.37756 4.49262 15132 ft 357 kts 297°
2026-04-29 11:36 43.38824 4.46566 15515 ft 359 kts 297°
2026-04-29 11:37 43.40018 4.43521 15921 ft 361 kts 297°
2026-04-29 11:37 43.40796 4.41530 16198 ft 362 kts 297°
2026-04-29 11:37 43.42340 4.37569 16698 ft 365 kts 297°
2026-04-29 11:37 43.43509 4.34565 17068 ft 367 kts 296°
2026-04-29 11:38 43.44527 4.31948 17391 ft 369 kts 296°
2026-04-29 11:38 43.45723 4.28871 17749 ft 371 kts 296°
2026-04-29 11:38 43.46880 4.25893 18053 ft 373 kts 296°
2026-04-29 11:38 43.48062 4.22843 18407 ft 375 kts 296°
2026-04-29 11:39 43.49256 4.19764 18745 ft 377 kts 296°
2026-04-29 11:39 43.50485 4.16585 19105 ft 379 kts 296°
2026-04-29 11:39 43.51689 4.13470 19435 ft 381 kts 296°
2026-04-29 11:39 43.52880 4.10387 19743 ft 383 kts 296°
2026-04-29 11:40 43.54109 4.07200 20062 ft 384 kts 296°
2026-04-29 11:40 43.55123 4.04567 20333 ft 386 kts 296°
2026-04-29 11:40 43.56105 4.02015 20582 ft 387 kts 296°
2026-04-29 11:40 43.57134 3.99339 20838 ft 389 kts 296°
2026-04-29 11:41 43.58320 3.96095 21135 ft 390 kts 294°
2026-04-29 11:41 43.59436 3.92832 21433 ft 391 kts 294°
2026-04-29 11:41 43.60585 3.89425 21731 ft 393 kts 294°
2026-04-29 11:41 43.61708 3.86085 22007 ft 395 kts 294°
2026-04-29 11:42 43.62852 3.82682 22272 ft 397 kts 294°
2026-04-29 11:42 43.63983 3.79312 22526 ft 399 kts 294°
2026-04-29 11:42 43.65116 3.75935 22766 ft 401 kts 294°
2026-04-29 11:42 43.66279 3.72466 23022 ft 403 kts 294°
2026-04-29 11:43 43.67436 3.69012 23284 ft 404 kts 294°
2026-04-29 11:43 43.68575 3.65606 23526 ft 406 kts 294°
2026-04-29 11:43 43.69761 3.62057 23780 ft 408 kts 294°
2026-04-29 11:43 43.70520 3.59780 23937 ft 409 kts 294°
2026-04-29 11:44 43.72058 3.55168 24265 ft 411 kts 294°
2026-04-29 11:44 43.73232 3.51640 24511 ft 412 kts 294°
2026-04-29 11:44 43.74412 3.48092 24743 ft 414 kts 294°
2026-04-29 11:44 43.75594 3.44533 24969 ft 415 kts 294°
2026-04-29 11:45 43.76784 3.40941 25202 ft 416 kts 294°
2026-04-29 11:45 43.77982 3.37321 25427 ft 417 kts 294°
2026-04-29 11:45 43.79130 3.33849 25640 ft 419 kts 293°
2026-04-29 11:45 43.80224 3.30538 25846 ft 420 kts 293°
2026-04-29 11:46 43.81239 3.27460 26040 ft 420 kts 293°
2026-04-29 11:46 43.82339 3.24122 26228 ft 421 kts 293°
2026-04-29 11:46 43.83557 3.20421 26430 ft 423 kts 293°
2026-04-29 11:46 43.84359 3.17981 26569 ft 423 kts 293°
2026-04-29 11:47 43.85962 3.13096 26817 ft 425 kts 293°
2026-04-29 11:47 43.87139 3.09499 26984 ft 427 kts 293°
2026-04-29 11:47 43.88346 3.05809 27156 ft 428 kts 293°
2026-04-29 11:47 43.89521 3.02211 27324 ft 430 kts 293°
2026-04-29 11:48 43.90299 2.99828 27436 ft 430 kts 293°
2026-04-29 11:48 43.91937 2.94804 27750 ft 430 kts 293°
2026-04-29 11:48 43.93072 2.91316 28000 ft 429 kts 292°
2026-04-29 11:48 43.94294 2.87557 28265 ft 428 kts 292°
2026-04-29 11:49 43.95435 2.84040 28515 ft 427 kts 292°
2026-04-29 11:49 43.96660 2.80257 28792 ft 426 kts 292°
2026-04-29 11:49 43.97796 2.76748 29049 ft 425 kts 292°
2026-04-29 11:49 43.98932 2.73232 29313 ft 423 kts 292°
2026-04-29 11:50 44.00135 2.69505 29569 ft 423 kts 292°
2026-04-29 11:50 44.01232 2.66106 29785 ft 422 kts 292°
2026-04-29 11:50 44.02346 2.62647 29998 ft 422 kts 292°
2026-04-29 11:50 44.03523 2.58984 30217 ft 422 kts 292°
2026-04-29 11:51 44.04649 2.55474 30388 ft 422 kts 292°
2026-04-29 11:51 44.05852 2.51718 30539 ft 424 kts 292°
2026-04-29 11:51 44.07032 2.48028 30702 ft 425 kts 292°
2026-04-29 11:51 44.08207 2.44352 30882 ft 425 kts 292°
2026-04-29 11:52 44.09405 2.40600 31056 ft 426 kts 292°
2026-04-29 11:52 44.10470 2.37258 31196 ft 427 kts 292°
2026-04-29 11:52 44.11371 2.34426 31307 ft 427 kts 291°
2026-04-29 11:52 44.12257 2.31638 31425 ft 428 kts 291°
2026-04-29 11:53 44.13257 2.28493 31546 ft 428 kts 291°
2026-04-29 11:53 44.14318 2.25147 31682 ft 429 kts 291°
2026-04-29 11:53 44.15466 2.21523 31844 ft 429 kts 291°
2026-04-29 11:53 44.16642 2.17810 31919 ft 430 kts 291°
2026-04-29 11:54 44.18989 2.10375 31916 ft 430 kts 291°
2026-04-29 11:54 44.21302 2.03027 31914 ft 431 kts 291°
2026-04-29 11:55 44.23655 1.95530 31913 ft 431 kts 290°
2026-04-29 11:55 44.25908 1.88335 31914 ft 431 kts 290°
2026-04-29 11:56 44.27966 1.81739 31912 ft 431 kts 290°
2026-04-29 11:56 44.29984 1.75259 31905 ft 432 kts 290°
2026-04-29 11:57 44.32264 1.67918 31906 ft 432 kts 290°
2026-04-29 11:57 44.32974 1.65627 31902 ft 432 kts 290°